Theta_e
324 325 324 322 322 322 328 326 327 320 319 319 317 324 332 329 331 330 331 334 335 335 326 334 337 336 331 329 326 324 323 323 321 320 319 317 315 315 314 314 314 313 313 312
328 325 323 322 321 319 318 318 318 318 317 315 323 332 335 334 334 333 332 331 337 336 335 332 337 337 331 329 327 325 323 323 322 320 318 316 316 316 316 315 315 314 313 312
327 325 322 321 321 321 320 320 320 319 318 329 336 335 332 331 332 332 333 332 332 332 334 334 334 336 333 329 328 324 323 323 322 320 318 317 317 317 316 316 315 314 313 312
323 322 323 319 320 320 320 320 322 322 334 333 333 327 325 324 326 330 331 331 331 331 332 334 331 333 331 329 328 324 323 323 322 320 319 318 318 318 316 316 315 314 313 312
321 322 321 320 320 320 320 323 330 333 332 329 328 324 323 322 323 327 328 329 331 331 331 335 336 333 333 330 327 325 324 323 322 321 320 318 319 318 317 316 315 314 313 312
320 322 323 322 321 322 325 327 328 327 327 327 327 328 324 320 321 323 327 328 330 330 332 332 333 331 330 330 327 325 323 323 322 321 320 319 319 318 317 315 315 315 313 313
318 319 319 319 323 326 326 329 327 325 324 323 324 323 321 318 318 322 324 328 330 329 330 331 333 331 327 330 327 325 323 322 321 321 320 319 319 318 317 315 314 314 314 312
319 319 320 326 328 329 328 326 320 322 320 319 318 318 316 315 316 317 320 323 327 328 328 330 332 327 330 330 327 324 323 322 322 321 320 320 319 318 316 315 314 314 313 312
324 322 323 323 325 325 321 321 319 319 319 318 317 315 314 313 316 315 316 318 326 327 327 328 329 331 330 328 326 324 323 322 321 321 321 321 319 317 315 315 315 313 312 312
313 318 315 319 322 324 323 320 318 317 318 318 318 314 312 311 313 313 314 315 320 325 326 327 328 330 330 328 326 325 323 322 322 321 321 320 318 315 315 315 313 312 313 314
309 310 315 312 313 313 316 320 319 317 317 318 314 312 311 310 311 312 312 314 314 325 324 324 325 328 330 328 326 324 323 322 322 321 320 318 316 316 314 313 313 313 312 312
308 310 310 309 311 311 309 309 310 312 312 311 311 311 310 309 310 311 313 313 313 316 324 323 322 325 328 328 325 323 322 322 321 320 317 316 314 311 309 308 310 310 309 309
306 308 307 308 308 309 310 310 309 309 309 309 309 310 310 309 311 310 310 312 313 316 325 322 321 323 325 327 325 323 322 321 321 319 315 311 310 309 305 304 305 307 305 303
305 306 306 306 306 306 307 308 309 309 309 309 309 310 311 310 310 310 312 313 314 323 325 323 322 323 322 325 325 323 322 321 319 318 316 311 311 308 307 304 303 302 302 302
307 306 305 305 305 305 305 305 306 306 306 306 307 308 309 308 308 311 311 311 318 321 322 324 323 322 320 324 325 323 321 319 318 318 317 314 313 312 309 305 304 303 302 303
306 306 306 306 306 306 306 306 305 306 306 306 306 308 309 309 309 311 311 311 318 320 318 323 322 318 318 324 324 322 321 319 318 318 317 313 313 312 309 308 307 305 304 306
308 308 309 308 309 308 308 308 306 305 305 306 307 309 310 310 309 309 311 312 318 317 317 322 322 318 319 324 323 322 320 319 318 317 315 313 314 312 312 311 309 306 301 300
309 309 308 308 308 307 307 308 308 307 307 306 310 311 311 311 310 312 314 313 318 317 319 320 320 319 321 323 322 320 319 319 317 313 313 314 313 313 312 311 306 303 302 302
308 308 309 309 308 308 308 308 307 305 306 311 312 311 311 311 312 314 315 318 317 318 318 319 320 319 323 322 322 319 317 315 314 313 313 313 313 312 311 309 306 304 302 302
309 309 308 308 308 309 309 309 309 309 306 308 312 312 312 313 312 313 317 318 317 318 319 319 319 319 322 322 317 317 315 313 313 312 312 311 311 309 306 304 303 303 302 301
309 309 308 308 308 308 307 309 309 309 310 310 311 311 312 313 313 315 317 315 318 319 318 318 317 320 318 315 315 314 313 313 312 311 310 309 308 305 303 303 302 301 299 297
307 307 308 308 308 308 308 307 306 307 308 310 310 311 313 314 316 317 317 317 316 317 318 318 317 315 314 314 312 312 313 312 311 310 310 306 304 303 303 302 300 299 297 295
308 308 308 307 307 307 307 306 306 307 308 308 310 312 313 314 315 316 316 316 317 318 316 315 314 313 312 312 312 312 311 311 310 307 305 304 303 302 301 299 297 296 295 295
307 306 305 305 305 306 306 305 306 308 309 310 312 314 314 314 315 316 315 315 315 314 312 313 311 311 311 311 311 310 309 307 305 304 304 303 302 300 299 297 296 296 295 294
306 305 305 305 305 306 305 307 308 311 312 314 314 313 313 314 313 313 313 314 313 311 310 311 311 311 311 310 308 306 305 304 304 303 302 301 299 297 296 296 295 295 294 294
304 304 304 305 305 306 308 310 313 314 313 312 312 312 312 312 312 312 311 311 310 309 310 309 309 310 309 307 305 304 304 304 303 301 300 299 297 296 296 295 295 295 295 295
304 304 305 306 307 307 308 310 314 313 311 311 311 311 312 312 311 311 311 310 310 310 309 307 305 305 304 304 304 303 302 301 300 298 297 296 296 295 295 295 295 296 295 294
Wind_Speed
8 11 13 12 12 9 5 6 5 10 7 6 9 6 5 6 10 10 9 7 4 6 6 10 21 23 27 29 33 34 33 33 32 28 25 23 20 19 17 17 17 14 11 10
5 11 14 17 13 11 10 11 11 12 12 8 2 10 13 10 12 10 7 8 6 4 2 13 15 15 21 28 30 34 33 34 31 28 26 25 22 21 19 17 14 11 12 10
4 8 14 9 9 9 9 9 8 10 12 10 12 12 9 8 9 8 9 9 8 8 4 12 17 16 19 28 28 34 32 32 31 29 27 26 25 23 21 17 13 10 7 8
3 6 8 8 7 11 14 10 11 6 12 13 13 9 8 7 7 7 8 9 8 8 11 10 18 23 23 32 31 32 29 30 33 30 28 25 22 22 20 17 14 11 10 8
2 5 14 14 15 8 11 16 14 4 8 6 12 12 8 6 7 7 7 6 11 14 21 22 18 30 36 29 29 32 29 29 32 34 32 29 26 23 21 17 15 12 9 8
3 4 5 3 4 9 6 6 9 11 10 8 8 3 2 6 6 8 9 11 14 16 21 25 17 22 29 24 21 24 28 34 34 33 31 30 27 24 21 18 15 12 10 10
9 6 6 3 10 6 3 5 4 5 7 9 6 0 5 6 7 11 14 13 17 18 18 23 10 34 25 29 28 33 36 35 36 34 27 28 26 23 21 17 13 12 13 9
8 10 12 6 6 3 2 4 9 6 4 6 6 6 6 8 8 9 11 17 15 16 18 17 4 22 21 24 32 37 33 30 32 33 28 27 27 25 21 16 12 8 11 10
4 5 6 1 4 6 5 3 3 6 13 10 8 6 7 7 6 7 14 22 17 13 14 15 14 12 19 25 25 29 34 33 36 31 26 28 28 24 18 14 12 11 12 13
4 5 7 6 2 4 4 5 6 5 5 9 9 6 6 8 7 6 13 19 21 12 12 12 14 7 20 25 28 23 24 26 30 24 26 28 24 21 17 14 13 13 9 11
7 6 6 7 6 7 3 4 5 6 7 10 11 6 5 7 5 9 15 18 24 10 9 9 12 10 11 24 30 30 24 26 29 24 24 22 20 16 13 8 11 12 12 16
8 4 4 6 5 5 5 6 6 5 5 5 4 6 5 5 8 12 16 19 21 23 9 6 10 12 11 19 26 30 28 26 26 29 19 21 20 17 12 10 10 10 9 9
12 5 7 9 7 4 6 7 6 7 8 7 8 11 11 5 12 17 21 23 20 22 9 7 12 14 16 17 24 26 26 31 34 31 26 24 25 24 20 13 13 13 11 11
17 15 13 9 10 8 8 10 16 13 13 13 13 15 16 13 15 19 17 19 19 7 8 11 13 15 16 18 28 28 31 31 29 24 26 28 25 23 21 21 19 15 11 9
15 15 16 15 15 16 20 15 15 14 12 12 19 17 18 13 13 18 20 20 9 7 11 15 14 20 18 20 26 31 31 30 30 26 26 29 25 24 21 19 17 15 12 9
15 14 9 6 9 12 13 11 10 12 15 16 16 16 22 25 25 21 17 21 11 9 14 17 16 22 22 22 32 28 33 32 28 27 30 28 26 26 21 21 18 15 9 6
5 6 6 9 8 9 10 11 12 14 16 15 21 24 21 17 19 20 23 21 15 9 14 17 19 23 20 24 31 31 32 30 29 26 30 28 23 26 23 23 20 21 13 9
4 6 5 7 10 11 13 13 15 17 15 24 15 3 4 5 7 15 20 21 11 12 17 17 20 19 21 29 27 30 32 32 29 26 23 21 28 29 26 21 27 22 15 12
12 10 11 7 11 11 12 10 16 17 19 18 11 6 11 15 17 20 26 15 12 15 21 19 19 14 15 33 36 27 27 24 23 20 21 30 29 28 23 18 25 20 15 11
8 12 13 15 18 16 13 17 19 17 26 33 20 9 8 10 18 23 14 14 17 20 18 15 14 20 22 35 26 33 26 24 17 27 29 30 29 24 24 24 25 22 20 18
12 14 15 16 16 17 21 18 15 17 22 20 15 11 13 16 20 14 9 5 16 19 18 17 19 27 40 37 34 26 23 23 29 33 32 32 26 27 29 27 24 22 22 20
14 15 17 19 17 17 19 16 19 22 21 18 19 19 17 16 13 14 16 15 16 12 9 23 39 44 42 33 22 22 25 30 33 33 29 32 32 29 27 26 24 21 18 17
15 15 14 14 13 15 18 20 22 23 22 21 21 19 18 14 12 10 5 12 17 29 31 34 42 35 23 21 25 32 36 33 31 33 34 33 32 30 29 26 23 19 17 14
14 17 19 23 22 19 13 20 20 23 22 22 23 17 13 11 11 13 18 27 34 36 37 35 23 23 20 33 34 35 37 37 36 36 34 32 31 29 26 23 20 18 18 14
18 18 19 17 11 10 17 20 21 20 18 9 15 14 15 15 21 21 30 35 28 31 30 31 28 25 34 35 38 37 35 34 34 36 34 32 31 30 26 22 21 19 16 12
18 15 17 17 15 15 16 15 9 8 16 14 15 17 18 28 30 33 32 33 24 25 29 24 20 26 32 37 39 40 39 37 35 35 33 29 27 26 23 21 19 16 14 13
20 20 16 14 15 16 16 14 6 14 22 22 17 18 28 31 32 30 26 24 24 28 24 20 30 36 38 38 39 38 39 38 36 34 32 30 27 23 20 19 17 13 11 10
Wind_Direction
283 293 301 296 295 294 187 236 218 276 273 297 305 70 121 82 82 77 74 128 173 309 186 172 172 191 184 180 183 186 183 184 188 182 182 182 181 183 188 201 208 202 203 211
305 299 290 289 285 274 274 275 282 284 283 252 55 77 64 55 59 60 53 55 69 57 315 191 193 179 187 180 189 187 182 186 183 180 182 185 185 190 196 206 212 219 220 221
256 307 318 298 257 275 264 255 233 252 254 114 87 74 65 53 51 43 41 30 47 4 182 217 226 226 195 179 183 183 182 185 180 182 187 190 189 192 197 205 203 214 216 218
264 358 268 245 259 275 282 286 323 292 86 85 105 86 63 47 60 52 45 36 358 24 339 273 220 216 191 188 189 178 180 179 182 182 187 191 194 197 198 199 202 205 221 241
199 214 281 298 299 303 308 296 356 141 89 90 121 86 33 18 42 41 58 39 354 16 351 351 194 197 193 187 180 180 178 176 183 185 184 187 196 200 200 198 195 206 226 231
197 236 258 13 328 16 323 278 6 52 47 34 360 70 301 4 29 22 20 13 15 18 17 15 152 162 171 191 183 184 178 180 183 186 187 188 191 201 198 196 198 205 223 235
215 229 268 307 323 3 277 288 356 41 34 40 77 99 288 5 6 19 9 5 22 29 27 19 164 177 198 194 189 182 183 184 186 185 187 192 191 197 199 196 203 214 227 245
219 234 264 7 38 33 241 19 21 348 79 55 40 348 359 351 356 357 353 352 17 31 21 16 34 198 204 204 191 180 178 181 179 182 182 201 191 190 195 196 204 216 237 256
192 209 178 146 155 152 151 134 12 16 343 16 5 357 338 315 338 343 348 338 345 18 18 13 3 220 204 195 191 179 174 174 177 184 185 190 187 184 187 188 200 230 245 254
19 18 347 343 232 136 131 138 163 118 354 339 318 307 315 306 313 343 343 332 333 359 1 10 352 326 225 204 188 184 173 167 171 182 180 178 178 179 178 187 217 235 255 227
286 319 330 55 30 24 18 232 177 183 187 205 238 261 257 276 324 331 322 321 322 329 340 353 345 306 220 200 188 173 161 159 167 175 166 166 163 174 183 206 228 225 174 160
280 303 236 268 283 283 264 261 272 243 242 258 281 277 280 293 304 305 299 310 308 309 287 316 328 300 255 213 185 170 164 159 159 153 174 157 155 133 140 137 141 165 146 147
286 276 264 262 274 298 297 301 286 266 250 255 263 266 274 265 281 286 290 293 295 292 277 289 305 293 277 237 196 170 164 162 167 161 163 159 148 145 132 121 121 137 135 114
289 298 301 300 291 286 276 278 287 273 273 263 255 262 258 253 265 274 278 285 298 296 272 268 285 281 281 252 201 175 165 169 161 161 162 173 171 167 163 154 147 146 145 133
259 259 259 262 267 272 274 273 271 267 268 266 262 249 252 250 257 262 273 286 266 277 273 258 274 278 288 246 209 178 165 165 164 167 179 181 184 183 178 172 169 167 168 178
266 260 267 289 297 297 293 251 260 273 258 258 261 247 250 256 258 264 273 282 227 244 281 260 259 295 293 236 199 180 163 169 171 176 189 186 178 171 172 170 167 163 168 204
340 329 335 308 293 284 281 321 273 252 260 279 249 237 243 247 263 269 273 266 221 255 266 257 258 292 290 224 184 160 159 167 178 193 189 189 171 165 172 173 163 157 148 128
321 298 252 244 265 283 291 284 282 300 277 278 268 215 236 268 254 273 269 251 210 255 248 263 257 283 268 177 153 148 157 168 187 190 190 163 155 163 164 168 162 152 133 125
226 235 256 279 274 273 279 278 279 285 302 285 251 241 260 263 274 279 285 197 216 234 256 265 248 266 227 151 156 156 163 186 192 185 146 152 147 153 159 143 156 149 145 127
287 309 296 294 286 283 268 276 279 293 303 289 277 271 281 284 301 298 231 212 233 253 266 270 259 226 209 159 156 162 182 175 158 137 130 131 128 124 121 119 115 119 109 97
285 283 277 272 267 278 283 270 285 289 275 272 303 294 273 285 296 271 229 221 259 262 265 253 249 169 137 142 157 183 163 145 131 126 127 126 124 117 113 110 105 101 97 93
287 282 282 274 268 270 264 276 288 283 279 280 278 272 274 277 257 237 240 239 262 259 261 155 130 131 137 147 163 155 142 131 128 130 126 122 118 115 111 107 102 100 98 89
280 291 306 303 289 279 273 271 269 266 265 266 271 261 264 239 231 209 195 180 161 138 125 126 135 132 149 132 137 125 126 125 121 118 118 118 117 114 111 106 100 98 95 92
288 287 285 282 279 275 268 269 264 261 254 255 263 252 198 190 201 195 158 136 123 127 135 133 139 121 111 123 117 113 113 112 112 116 116 113 110 109 108 104 103 100 97 94
288 285 281 273 268 265 268 262 258 253 247 210 145 158 170 159 135 127 127 125 121 125 135 123 113 106 115 108 108 109 108 110 114 114 114 116 114 111 109 110 105 99 93 87
291 284 281 272 263 266 266 266 272 238 127 117 109 116 116 117 118 118 123 122 132 111 107 103 95 112 113 113 116 117 114 113 114 117 117 112 111 109 109 107 103 100 95 88
285 280 276 270 251 244 252 263 239 124 126 126 111 97 99 105 117 128 138 134 111 111 106 97 116 113 111 111 110 113 116 118 119 115 114 114 114 114 111 107 105 106 101 90